Year,Month,Day,Hour,Minute,Value (Times are PST for temperature in C)
2014,09,12,00,00,11.80
2014,09,12,00,01,11.80
2014,09,12,00,02,11.80
2014,09,12,00,03,11.80
2014,09,12,00,04,11.70
2014,09,12,00,05,11.70
2014,09,12,00,06,11.60
2014,09,12,00,07,11.60
2014,09,12,00,08,11.60
2014,09,12,00,09,11.60
2014,09,12,00,10,11.60
2014,09,12,00,11,11.50
2014,09,12,00,12,11.40
2014,09,12,00,13,11.40
2014,09,12,00,14,11.40
2014,09,12,00,15,11.30
2014,09,12,00,16,11.30
2014,09,12,00,17,11.30
2014,09,12,00,18,11.20
2014,09,12,00,19,11.20
2014,09,12,00,20,11.20
2014,09,12,00,21,11.20
2014,09,12,00,22,11.10
2014,09,12,00,23,11.10
2014,09,12,00,24,11.10
2014,09,12,00,25,11.10
2014,09,12,00,26,11.10
2014,09,12,00,27,11.10
2014,09,12,00,28,11.00
2014,09,12,00,29,10.90
2014,09,12,00,30,10.90
2014,09,12,00,31,10.80
2014,09,12,00,32,10.80
2014,09,12,00,33,10.70
2014,09,12,00,34,10.70
2014,09,12,00,35,10.60
2014,09,12,00,36,10.60
2014,09,12,00,37,10.60
2014,09,12,00,38,10.40
2014,09,12,00,39,10.40
2014,09,12,00,40,10.40
2014,09,12,00,41,10.40
2014,09,12,00,42,10.30
2014,09,12,00,43,10.30
2014,09,12,00,44,10.30
2014,09,12,00,45,10.30
2014,09,12,00,46,10.30
2014,09,12,00,47,10.30
2014,09,12,00,48,10.30
2014,09,12,00,49,10.30
2014,09,12,00,50,10.30
2014,09,12,00,51,10.30
2014,09,12,00,52,10.30
2014,09,12,00,53,10.30
2014,09,12,00,54,10.20
2014,09,12,00,55,10.20
2014,09,12,00,56,10.20
2014,09,12,00,57,10.10
2014,09,12,00,58,10.10
2014,09,12,00,59,10.10
2014,09,12,01,00,10.10
2014,09,12,01,01,10.10
2014,09,12,01,02,10.00
2014,09,12,01,03,9.90
2014,09,12,01,04,9.90
2014,09,12,01,05,9.90
2014,09,12,01,06,9.80
2014,09,12,01,07,9.80
2014,09,12,01,08,9.70
2014,09,12,01,09,9.70
2014,09,12,01,10,9.70
2014,09,12,01,11,9.70
2014,09,12,01,12,9.60
2014,09,12,01,13,9.60
2014,09,12,01,14,9.60
2014,09,12,01,15,9.50
2014,09,12,01,16,9.50
2014,09,12,01,17,9.50
2014,09,12,01,18,9.50
2014,09,12,01,19,9.50
2014,09,12,01,20,9.50
2014,09,12,01,21,9.50
2014,09,12,01,22,9.50
2014,09,12,01,23,9.60
2014,09,12,01,24,9.60
2014,09,12,01,25,9.60
2014,09,12,01,26,9.50
2014,09,12,01,27,9.50
2014,09,12,01,28,9.50
2014,09,12,01,29,9.50
2014,09,12,01,30,9.40
2014,09,12,01,31,9.40
2014,09,12,01,32,9.40
2014,09,12,01,33,9.40
2014,09,12,01,34,9.40
2014,09,12,01,35,9.30
2014,09,12,01,36,9.30
2014,09,12,01,37,9.30
2014,09,12,01,38,9.30
2014,09,12,01,39,9.20
2014,09,12,01,40,9.20
2014,09,12,01,41,9.20
2014,09,12,01,42,9.20
2014,09,12,01,43,9.20
2014,09,12,01,44,9.20
2014,09,12,01,45,9.20
2014,09,12,01,46,9.20
2014,09,12,01,47,9.20
2014,09,12,01,48,9.10
2014,09,12,01,49,9.10
2014,09,12,01,50,9.00
2014,09,12,01,51,9.00
2014,09,12,01,52,8.90
2014,09,12,01,53,8.90
2014,09,12,01,54,8.90
2014,09,12,01,55,8.90
2014,09,12,01,56,8.90
2014,09,12,01,57,8.80
2014,09,12,01,58,8.80
2014,09,12,01,59,8.80
2014,09,12,02,00,8.80
2014,09,12,02,01,8.80
2014,09,12,02,02,8.80
2014,09,12,02,03,8.80
2014,09,12,02,04,8.70
2014,09,12,02,05,8.70
2014,09,12,02,06,8.70
2014,09,12,02,07,8.70
2014,09,12,02,08,8.70
2014,09,12,02,09,8.70
2014,09,12,02,10,8.70
2014,09,12,02,11,8.70
2014,09,12,02,12,8.70
2014,09,12,02,13,8.70
2014,09,12,02,14,8.60
2014,09,12,02,15,8.60
2014,09,12,02,16,8.60
2014,09,12,02,17,8.60
2014,09,12,02,18,8.60
2014,09,12,02,19,8.60
2014,09,12,02,20,8.60
2014,09,12,02,21,8.60
2014,09,12,02,22,8.50
2014,09,12,02,23,8.50
2014,09,12,02,24,8.50
2014,09,12,02,25,8.50
2014,09,12,02,26,8.40
2014,09,12,02,27,8.40
2014,09,12,02,28,8.40
2014,09,12,02,29,8.30
2014,09,12,02,30,8.30
2014,09,12,02,31,8.30
2014,09,12,02,32,8.20
2014,09,12,02,33,8.20
2014,09,12,02,34,8.20
2014,09,12,02,35,8.20
2014,09,12,02,36,8.20
2014,09,12,02,37,8.20
2014,09,12,02,38,8.10
2014,09,12,02,39,8.10
2014,09,12,02,40,8.10
2014,09,12,02,41,8.10
2014,09,12,02,42,8.00
2014,09,12,02,43,8.00
2014,09,12,02,44,8.00
2014,09,12,02,45,8.00
2014,09,12,02,46,7.90
2014,09,12,02,47,7.90
2014,09,12,02,48,7.90
2014,09,12,02,49,7.90
2014,09,12,02,50,7.90
2014,09,12,02,51,7.90
2014,09,12,02,52,7.90
2014,09,12,02,53,7.90
2014,09,12,02,54,7.90
2014,09,12,02,55,7.90
2014,09,12,02,56,7.90
2014,09,12,02,57,7.90
2014,09,12,02,58,7.80
2014,09,12,02,59,7.80
2014,09,12,03,00,7.80
2014,09,12,03,01,7.80
2014,09,12,03,02,7.80
2014,09,12,03,03,7.80
2014,09,12,03,04,7.80
2014,09,12,03,05,7.80
2014,09,12,03,06,7.80
2014,09,12,03,07,7.80
2014,09,12,03,08,7.80
2014,09,12,03,09,7.80
2014,09,12,03,10,7.80
2014,09,12,03,11,7.80
2014,09,12,03,12,7.80
2014,09,12,03,13,7.80
2014,09,12,03,14,7.80
2014,09,12,03,15,7.80
2014,09,12,03,16,7.80
2014,09,12,03,17,7.80
2014,09,12,03,18,7.80
2014,09,12,03,19,7.80
2014,09,12,03,20,7.80
2014,09,12,03,21,7.80
2014,09,12,03,22,7.80
2014,09,12,03,23,7.80
2014,09,12,03,24,7.80
2014,09,12,03,25,7.80
2014,09,12,03,26,7.80
2014,09,12,03,27,7.80
2014,09,12,03,28,7.80
2014,09,12,03,29,7.70
2014,09,12,03,30,7.70
2014,09,12,03,31,7.70
2014,09,12,03,32,7.60
2014,09,12,03,33,7.60
2014,09,12,03,34,7.60
2014,09,12,03,35,7.60
2014,09,12,03,36,7.50
2014,09,12,03,37,7.50
2014,09,12,03,38,7.50
2014,09,12,03,39,7.40
2014,09,12,03,40,7.40
2014,09,12,03,41,7.40
2014,09,12,03,42,7.40
2014,09,12,03,43,7.40
2014,09,12,03,44,7.40
2014,09,12,03,45,7.40
2014,09,12,03,46,7.40
2014,09,12,03,47,7.40
2014,09,12,03,48,7.30
2014,09,12,03,49,7.30
2014,09,12,03,50,7.30
2014,09,12,03,51,7.30
2014,09,12,03,52,7.30
2014,09,12,03,53,7.20
2014,09,12,03,54,7.20
2014,09,12,03,55,7.10
2014,09,12,03,56,7.10
2014,09,12,03,57,7.00
2014,09,12,03,58,7.00
2014,09,12,03,59,7.00
2014,09,12,04,00,7.00
2014,09,12,04,01,6.90
2014,09,12,04,02,6.90
2014,09,12,04,03,6.90
2014,09,12,04,04,6.90
2014,09,12,04,05,6.90
2014,09,12,04,06,6.90
2014,09,12,04,07,6.90
2014,09,12,04,08,6.90
2014,09,12,04,09,7.00
2014,09,12,04,10,7.00
2014,09,12,04,11,7.00
2014,09,12,04,12,7.10
2014,09,12,04,13,7.10
2014,09,12,04,14,7.10
2014,09,12,04,15,7.20
2014,09,12,04,16,7.20
2014,09,12,04,17,7.20
2014,09,12,04,18,7.20
2014,09,12,04,19,7.20
2014,09,12,04,20,7.20
2014,09,12,04,21,7.20
2014,09,12,04,22,7.20
2014,09,12,04,23,7.20
2014,09,12,04,24,7.10
2014,09,12,04,25,7.10
2014,09,12,04,26,7.10
2014,09,12,04,27,7.10
2014,09,12,04,28,7.00
2014,09,12,04,29,7.00
2014,09,12,04,30,7.00
2014,09,12,04,31,7.00
2014,09,12,04,32,7.00
2014,09,12,04,33,7.00
2014,09,12,04,34,6.90
2014,09,12,04,35,6.90
2014,09,12,04,36,6.90
2014,09,12,04,37,6.90
2014,09,12,04,38,6.90
2014,09,12,04,39,6.90
2014,09,12,04,40,6.90
2014,09,12,04,41,6.90
2014,09,12,04,42,6.90
2014,09,12,04,43,6.80
2014,09,12,04,44,6.80
2014,09,12,04,45,6.80
2014,09,12,04,46,6.80
2014,09,12,04,47,6.80
2014,09,12,04,48,6.70
2014,09,12,04,49,6.70
2014,09,12,04,50,6.70
2014,09,12,04,51,6.70
2014,09,12,04,52,6.70
2014,09,12,04,53,6.70
2014,09,12,04,54,6.70
2014,09,12,04,55,6.70
2014,09,12,04,56,6.60
2014,09,12,04,57,6.60
2014,09,12,04,58,6.60
2014,09,12,04,59,6.60
2014,09,12,05,00,6.60
2014,09,12,05,01,6.60
2014,09,12,05,02,6.60
2014,09,12,05,03,6.60
2014,09,12,05,04,6.60
2014,09,12,05,05,6.60
2014,09,12,05,06,6.60
2014,09,12,05,07,6.60
2014,09,12,05,08,6.60
2014,09,12,05,09,6.60
2014,09,12,05,10,6.60
2014,09,12,05,11,6.60
2014,09,12,05,12,6.60
2014,09,12,05,13,6.60
2014,09,12,05,14,6.60
2014,09,12,05,15,6.60
2014,09,12,05,16,6.60
2014,09,12,05,17,6.60
2014,09,12,05,18,6.60
2014,09,12,05,19,6.60
2014,09,12,05,20,6.60
2014,09,12,05,21,6.60
2014,09,12,05,22,6.60
2014,09,12,05,23,6.60
2014,09,12,05,24,6.60
2014,09,12,05,25,6.60
2014,09,12,05,26,6.60
2014,09,12,05,27,6.60
2014,09,12,05,28,6.60
2014,09,12,05,29,6.60
2014,09,12,05,30,6.60
2014,09,12,05,31,6.60
2014,09,12,05,32,6.60
2014,09,12,05,33,6.60
2014,09,12,05,34,6.60
2014,09,12,05,35,6.70
2014,09,12,05,36,6.70
2014,09,12,05,37,6.70
2014,09,12,05,38,6.70
2014,09,12,05,39,6.80
2014,09,12,05,40,6.80
2014,09,12,05,41,6.80
2014,09,12,05,42,6.80
2014,09,12,05,43,6.80
2014,09,12,05,44,6.80
2014,09,12,05,45,6.80
2014,09,12,05,46,6.70
2014,09,12,05,47,6.80
2014,09,12,05,48,6.80
2014,09,12,05,49,6.80
2014,09,12,05,50,6.80
2014,09,12,05,51,6.80
2014,09,12,05,52,6.80
2014,09,12,05,53,6.80
2014,09,12,05,54,6.80
2014,09,12,05,55,6.80
2014,09,12,05,56,6.80
2014,09,12,05,57,6.80
2014,09,12,05,58,6.90
2014,09,12,05,59,6.90
2014,09,12,06,00,6.90
2014,09,12,06,01,6.90
2014,09,12,06,02,6.90
2014,09,12,06,03,6.90
2014,09,12,06,04,6.90
2014,09,12,06,05,6.90
2014,09,12,06,06,6.90
2014,09,12,06,07,6.90
2014,09,12,06,08,6.90
2014,09,12,06,09,6.90
2014,09,12,06,10,6.90
2014,09,12,06,11,6.80
2014,09,12,06,12,6.80
2014,09,12,06,13,6.80
2014,09,12,06,14,6.80
2014,09,12,06,15,6.80
2014,09,12,06,16,6.80
2014,09,12,06,17,6.80
2014,09,12,06,18,6.80
2014,09,12,06,19,6.90
2014,09,12,06,20,6.90
2014,09,12,06,21,6.90
2014,09,12,06,22,6.90
2014,09,12,06,23,6.90
2014,09,12,06,24,6.90
2014,09,12,06,25,6.90
2014,09,12,06,26,6.90
2014,09,12,06,27,6.90
2014,09,12,06,28,6.90
2014,09,12,06,29,6.90
2014,09,12,06,30,6.90
2014,09,12,06,31,6.90
2014,09,12,06,32,6.90
2014,09,12,06,33,6.90
2014,09,12,06,34,6.90
2014,09,12,06,35,6.90
2014,09,12,06,36,7.00
2014,09,12,06,37,7.00
2014,09,12,06,38,7.00
2014,09,12,06,39,7.00
2014,09,12,06,40,7.10
2014,09,12,06,41,7.10
2014,09,12,06,42,7.10
2014,09,12,06,43,7.10
2014,09,12,06,44,7.20
2014,09,12,06,45,7.30
2014,09,12,06,46,7.30
2014,09,12,06,47,7.40
2014,09,12,06,48,7.50
2014,09,12,06,49,7.60
2014,09,12,06,50,7.70
2014,09,12,06,51,7.80
2014,09,12,06,52,7.80
2014,09,12,06,53,7.90
2014,09,12,06,54,7.90
2014,09,12,06,55,8.00
2014,09,12,06,56,8.00
2014,09,12,06,57,8.10
2014,09,12,06,58,8.10
2014,09,12,06,59,8.10
2014,09,12,07,00,8.10
2014,09,12,07,01,8.20
2014,09,12,07,02,8.20
2014,09,12,07,03,8.20
2014,09,12,07,04,8.20
2014,09,12,07,05,8.20
2014,09,12,07,06,8.30
2014,09,12,07,07,8.30
2014,09,12,07,08,8.40
2014,09,12,07,09,8.50
2014,09,12,07,10,8.60
2014,09,12,07,11,8.70
2014,09,12,07,12,8.70
2014,09,12,07,13,8.70
2014,09,12,07,14,8.70
2014,09,12,07,15,8.80
2014,09,12,07,16,8.90
2014,09,12,07,17,9.00
2014,09,12,07,18,9.10
2014,09,12,07,19,9.20
2014,09,12,07,20,9.20
2014,09,12,07,21,9.30
2014,09,12,07,22,9.40
2014,09,12,07,23,9.50
2014,09,12,07,24,9.50
2014,09,12,07,25,9.60
2014,09,12,07,26,9.70
2014,09,12,07,27,9.80
2014,09,12,07,28,9.90
2014,09,12,07,29,9.90
2014,09,12,07,30,10.00
2014,09,12,07,31,10.10
2014,09,12,07,32,10.20
2014,09,12,07,33,10.30
2014,09,12,07,34,10.40
2014,09,12,07,35,10.40
2014,09,12,07,36,10.50
2014,09,12,07,37,10.60
2014,09,12,07,38,10.70
2014,09,12,07,39,10.80
2014,09,12,07,40,10.90
2014,09,12,07,41,10.90
2014,09,12,07,42,11.00
2014,09,12,07,43,11.10
2014,09,12,07,44,11.10
2014,09,12,07,45,11.20
2014,09,12,07,46,11.20
2014,09,12,07,47,11.40
2014,09,12,07,48,11.40
2014,09,12,07,49,11.50
2014,09,12,07,50,11.60
2014,09,12,07,51,11.70
2014,09,12,07,52,11.80
2014,09,12,07,53,11.80
2014,09,12,07,54,12.00
2014,09,12,07,55,12.00
2014,09,12,07,56,12.10
2014,09,12,07,57,12.20
2014,09,12,07,58,12.30
2014,09,12,07,59,12.30
2014,09,12,08,00,12.40
2014,09,12,08,01,12.50
2014,09,12,08,02,12.50
2014,09,12,08,03,12.60
2014,09,12,08,04,12.70
2014,09,12,08,05,12.80
2014,09,12,08,06,13.00
2014,09,12,08,07,13.10
2014,09,12,08,08,13.20
2014,09,12,08,09,13.30
2014,09,12,08,10,13.30
2014,09,12,08,11,13.40
2014,09,12,08,12,13.50
2014,09,12,08,13,13.60
2014,09,12,08,14,13.60
2014,09,12,08,15,13.70
2014,09,12,08,16,13.70
2014,09,12,08,17,13.80
2014,09,12,08,18,13.80
2014,09,12,08,19,13.90
2014,09,12,08,20,14.00
2014,09,12,08,21,14.00
2014,09,12,08,22,14.10
2014,09,12,08,23,14.20
2014,09,12,08,24,14.20
2014,09,12,08,25,14.20
2014,09,12,08,26,14.30
2014,09,12,08,27,14.40
2014,09,12,08,28,14.50
2014,09,12,08,29,14.50
2014,09,12,08,30,14.50
2014,09,12,08,31,14.60
2014,09,12,08,32,14.60
2014,09,12,08,33,14.70
2014,09,12,08,34,14.80
2014,09,12,08,35,14.80
2014,09,12,08,36,14.90
2014,09,12,08,37,15.00
2014,09,12,08,38,15.10
2014,09,12,08,39,15.20
2014,09,12,08,40,15.20
2014,09,12,08,41,15.30
2014,09,12,08,42,15.40
2014,09,12,08,43,15.50
2014,09,12,08,44,15.50
2014,09,12,08,45,15.60
2014,09,12,08,46,15.60
2014,09,12,08,47,15.70
2014,09,12,08,48,15.80
2014,09,12,08,49,15.80
2014,09,12,08,50,15.80
2014,09,12,08,51,15.80
2014,09,12,08,52,15.80
2014,09,12,08,53,15.90
2014,09,12,08,54,15.90
2014,09,12,08,55,15.90
2014,09,12,08,56,15.90
2014,09,12,08,57,15.80
2014,09,12,08,58,15.80
2014,09,12,08,59,15.90
2014,09,12,09,00,15.90
2014,09,12,09,01,15.90
2014,09,12,09,02,15.90
2014,09,12,09,03,15.90
2014,09,12,09,04,15.90
2014,09,12,09,05,15.80
2014,09,12,09,06,15.80
2014,09,12,09,07,15.80
2014,09,12,09,08,15.80
2014,09,12,09,09,15.80
2014,09,12,09,10,15.80
2014,09,12,09,11,16.00
2014,09,12,09,12,16.10
2014,09,12,09,13,16.10
2014,09,12,09,14,16.20
2014,09,12,09,15,16.20
2014,09,12,09,16,16.20
2014,09,12,09,17,16.30
2014,09,12,09,18,16.30
2014,09,12,09,19,16.30
2014,09,12,09,20,16.40
2014,09,12,09,21,16.40
2014,09,12,09,22,16.40
2014,09,12,09,23,16.50
2014,09,12,09,24,16.60
2014,09,12,09,25,16.60
2014,09,12,09,26,16.70
2014,09,12,09,27,16.70
2014,09,12,09,28,16.70
2014,09,12,09,29,16.70
2014,09,12,09,30,16.70
2014,09,12,09,31,16.70
2014,09,12,09,32,16.70
2014,09,12,09,33,16.80
2014,09,12,09,34,16.80
2014,09,12,09,35,16.90
2014,09,12,09,36,16.90
2014,09,12,09,37,16.90
2014,09,12,09,38,16.70
2014,09,12,09,39,16.70
2014,09,12,09,40,16.80
2014,09,12,09,41,16.90
2014,09,12,09,42,16.90
2014,09,12,09,43,17.00
2014,09,12,09,44,17.00
2014,09,12,09,45,17.10
2014,09,12,09,46,17.20
2014,09,12,09,47,17.20
2014,09,12,09,48,17.30
2014,09,12,09,49,17.30
2014,09,12,09,50,17.40
2014,09,12,09,51,17.50
2014,09,12,09,52,17.50
2014,09,12,09,53,17.60
2014,09,12,09,54,17.60
2014,09,12,09,55,17.60
2014,09,12,09,56,17.70
2014,09,12,09,57,17.70
2014,09,12,09,58,17.70
2014,09,12,09,59,17.70
2014,09,12,10,00,17.80
2014,09,12,10,01,17.90
2014,09,12,10,02,17.90
2014,09,12,10,03,18.00
2014,09,12,10,04,17.90
2014,09,12,10,05,17.90
2014,09,12,10,06,17.90
2014,09,12,10,07,17.90
2014,09,12,10,08,17.90
2014,09,12,10,09,17.90
2014,09,12,10,10,17.90
2014,09,12,10,11,17.90
2014,09,12,10,12,17.90
2014,09,12,10,13,17.90
2014,09,12,10,14,17.80
2014,09,12,10,15,17.80
2014,09,12,10,16,17.80
2014,09,12,10,17,17.80
2014,09,12,10,18,17.80
2014,09,12,10,19,17.80
2014,09,12,10,20,17.90
2014,09,12,10,21,18.00
2014,09,12,10,22,18.10
2014,09,12,10,23,18.20
2014,09,12,10,24,18.20
2014,09,12,10,25,18.20
2014,09,12,10,26,18.20
2014,09,12,10,27,18.20
2014,09,12,10,28,18.20
2014,09,12,10,29,18.20
2014,09,12,10,30,18.20
2014,09,12,10,31,18.20
2014,09,12,10,32,18.20
2014,09,12,10,33,18.20
2014,09,12,10,34,18.20
2014,09,12,10,35,18.20
2014,09,12,10,36,18.20
2014,09,12,10,37,18.20
2014,09,12,10,38,18.20
2014,09,12,10,39,18.20
2014,09,12,10,40,18.20
2014,09,12,10,41,18.30
2014,09,12,10,42,18.40
2014,09,12,10,43,18.50
2014,09,12,10,44,18.50
2014,09,12,10,45,18.40
2014,09,12,10,46,18.40
2014,09,12,10,47,18.50
2014,09,12,10,48,18.50
2014,09,12,10,49,18.40
2014,09,12,10,50,18.40
2014,09,12,10,51,18.40
2014,09,12,10,52,18.50
2014,09,12,10,53,18.60
2014,09,12,10,54,18.70
2014,09,12,10,55,18.80
2014,09,12,10,56,18.90
2014,09,12,10,57,18.90
2014,09,12,10,58,18.90
2014,09,12,10,59,19.00
2014,09,12,11,00,19.10
2014,09,12,11,01,19.10
2014,09,12,11,02,19.20
2014,09,12,11,03,19.30
2014,09,12,11,04,19.40
2014,09,12,11,05,19.50
2014,09,12,11,06,19.50
2014,09,12,11,07,19.60
2014,09,12,11,08,19.70
2014,09,12,11,09,19.70
2014,09,12,11,10,19.70
2014,09,12,11,11,19.70
2014,09,12,11,12,19.70
2014,09,12,11,13,19.60
2014,09,12,11,14,19.60
2014,09,12,11,15,19.70
2014,09,12,11,16,19.70
2014,09,12,11,17,19.70
2014,09,12,11,18,19.70
2014,09,12,11,19,19.70
2014,09,12,11,20,19.70
2014,09,12,11,21,19.70
2014,09,12,11,22,19.70
2014,09,12,11,23,19.70
2014,09,12,11,24,19.60
2014,09,12,11,25,19.60
2014,09,12,11,26,19.60
2014,09,12,11,27,19.70
2014,09,12,11,28,19.80
2014,09,12,11,29,19.70
2014,09,12,11,30,19.70
2014,09,12,11,31,19.70
2014,09,12,11,32,19.80
2014,09,12,11,33,19.90
2014,09,12,11,34,19.90
2014,09,12,11,35,20.10
2014,09,12,11,36,20.10
2014,09,12,11,37,20.10
2014,09,12,11,38,20.10
2014,09,12,11,39,20.10
2014,09,12,11,40,20.10
2014,09,12,11,41,20.10
2014,09,12,11,42,20.10
2014,09,12,11,43,20.20
2014,09,12,11,44,20.20
2014,09,12,11,45,20.20
2014,09,12,11,46,20.20
2014,09,12,11,47,20.20
2014,09,12,11,48,20.30
2014,09,12,11,49,20.40
2014,09,12,11,50,20.50
2014,09,12,11,51,20.60
2014,09,12,11,52,20.60
2014,09,12,11,53,20.60
2014,09,12,11,54,20.70
2014,09,12,11,55,20.70
2014,09,12,11,56,20.60
2014,09,12,11,57,20.60
2014,09,12,11,58,20.50
2014,09,12,11,59,20.40
2014,09,12,12,00,20.30
2014,09,12,12,01,20.30
2014,09,12,12,02,20.20
2014,09,12,12,03,20.20
2014,09,12,12,04,20.20
2014,09,12,12,05,20.20
2014,09,12,12,06,20.40
2014,09,12,12,07,20.50
2014,09,12,12,08,20.60
2014,09,12,12,09,20.70
2014,09,12,12,10,20.70
2014,09,12,12,11,20.50
2014,09,12,12,12,20.50
2014,09,12,12,13,20.40
2014,09,12,12,14,20.40
2014,09,12,12,15,20.50
2014,09,12,12,16,20.40
2014,09,12,12,17,20.50
2014,09,12,12,18,20.50
2014,09,12,12,19,20.70
2014,09,12,12,20,20.80
2014,09,12,12,21,20.90
2014,09,12,12,22,21.00
2014,09,12,12,23,21.10
2014,09,12,12,24,21.20
2014,09,12,12,25,21.30
2014,09,12,12,26,21.30
2014,09,12,12,27,21.30
2014,09,12,12,28,21.30
2014,09,12,12,29,21.30
2014,09,12,12,30,21.30
2014,09,12,12,31,21.40
2014,09,12,12,32,21.50
2014,09,12,12,33,21.60
2014,09,12,12,34,21.70
2014,09,12,12,35,21.60
2014,09,12,12,36,21.60
2014,09,12,12,37,21.40
2014,09,12,12,38,21.30
2014,09,12,12,39,21.10
2014,09,12,12,40,21.10
2014,09,12,12,41,21.20
2014,09,12,12,42,21.30
2014,09,12,12,43,21.40
2014,09,12,12,44,21.50
2014,09,12,12,45,21.60
2014,09,12,12,46,21.60
2014,09,12,12,47,21.60
2014,09,12,12,48,21.60
2014,09,12,12,49,21.60
2014,09,12,12,50,21.60
2014,09,12,12,51,21.50
2014,09,12,12,52,21.60
2014,09,12,12,53,21.60
2014,09,12,12,54,21.60
2014,09,12,12,55,21.50
2014,09,12,12,56,21.40
2014,09,12,12,57,21.40
2014,09,12,12,58,21.30
2014,09,12,12,59,21.30
2014,09,12,13,00,21.30
2014,09,12,13,01,21.30
2014,09,12,13,02,21.30
2014,09,12,13,03,21.40
2014,09,12,13,04,21.50
2014,09,12,13,05,21.60
2014,09,12,13,06,21.80
2014,09,12,13,07,22.00
2014,09,12,13,08,22.10
2014,09,12,13,09,22.20
2014,09,12,13,10,22.20
2014,09,12,13,11,22.20
2014,09,12,13,12,22.20
2014,09,12,13,13,22.20
2014,09,12,13,14,22.20
2014,09,12,13,15,22.20
2014,09,12,13,16,22.20
2014,09,12,13,17,22.20
2014,09,12,13,18,22.10
2014,09,12,13,19,22.10
2014,09,12,13,20,22.10
2014,09,12,13,21,22.20
2014,09,12,13,22,22.10
2014,09,12,13,23,22.10
2014,09,12,13,24,22.10
2014,09,12,13,25,22.10
2014,09,12,13,26,22.10
2014,09,12,13,27,22.00
2014,09,12,13,28,22.00
2014,09,12,13,29,22.00
2014,09,12,13,30,22.00
2014,09,12,13,31,22.00
2014,09,12,13,32,22.10
2014,09,12,13,33,22.20
2014,09,12,13,34,22.20
2014,09,12,13,35,22.30
2014,09,12,13,36,22.30
2014,09,12,13,37,22.10
2014,09,12,13,38,22.00
2014,09,12,13,39,22.00
2014,09,12,13,40,21.90
2014,09,12,13,41,21.90
2014,09,12,13,42,22.00
2014,09,12,13,43,22.00
2014,09,12,13,44,21.90
2014,09,12,13,45,22.00
2014,09,12,13,46,22.00
2014,09,12,13,47,22.00
2014,09,12,13,48,22.10
2014,09,12,13,49,22.20
2014,09,12,13,50,22.20
2014,09,12,13,51,22.30
2014,09,12,13,52,22.30
2014,09,12,13,53,22.50
2014,09,12,13,54,22.60
2014,09,12,13,55,22.70
2014,09,12,13,56,22.70
2014,09,12,13,57,22.70
2014,09,12,13,58,22.70
2014,09,12,13,59,22.70
2014,09,12,14,00,22.80
2014,09,12,14,01,22.80
2014,09,12,14,02,22.80
2014,09,12,14,03,22.80
2014,09,12,14,04,22.80
2014,09,12,14,05,22.90
2014,09,12,14,06,22.80
2014,09,12,14,07,22.80
2014,09,12,14,08,22.80
2014,09,12,14,09,22.80
2014,09,12,14,10,22.80
2014,09,12,14,11,22.80
2014,09,12,14,12,22.80
2014,09,12,14,13,22.80
2014,09,12,14,14,22.90
2014,09,12,14,15,22.90
2014,09,12,14,16,22.80
2014,09,12,14,17,22.70
2014,09,12,14,18,22.60
2014,09,12,14,19,22.40
2014,09,12,14,20,22.30
2014,09,12,14,21,22.20
2014,09,12,14,22,22.20
2014,09,12,14,23,22.30
2014,09,12,14,24,22.20
2014,09,12,14,25,22.20
2014,09,12,14,26,22.20
2014,09,12,14,27,22.20
2014,09,12,14,28,22.10
2014,09,12,14,29,22.10
2014,09,12,14,30,22.10
2014,09,12,14,31,22.10
2014,09,12,14,32,22.10
2014,09,12,14,33,22.20
2014,09,12,14,34,22.30
2014,09,12,14,35,22.30
2014,09,12,14,36,22.30
2014,09,12,14,37,22.40
2014,09,12,14,38,22.50
2014,09,12,14,39,22.50
2014,09,12,14,40,22.70
2014,09,12,14,41,22.80
2014,09,12,14,42,22.90
2014,09,12,14,43,22.90
2014,09,12,14,44,23.00
2014,09,12,14,45,23.10
2014,09,12,14,46,23.20
2014,09,12,14,47,23.20
2014,09,12,14,48,23.20
2014,09,12,14,49,23.20
2014,09,12,14,50,23.20
2014,09,12,14,51,23.20
2014,09,12,14,52,23.10
2014,09,12,14,53,23.10
2014,09,12,14,54,23.10
2014,09,12,14,55,23.00
2014,09,12,14,56,22.90
2014,09,12,14,57,22.90
2014,09,12,14,58,22.90
2014,09,12,14,59,22.90
2014,09,12,15,00,22.90
2014,09,12,15,01,22.90
2014,09,12,15,02,22.80
2014,09,12,15,03,22.70
2014,09,12,15,04,22.60
2014,09,12,15,05,22.60
2014,09,12,15,06,22.60
2014,09,12,15,07,22.60
2014,09,12,15,08,22.60
2014,09,12,15,09,22.60
2014,09,12,15,10,22.60
2014,09,12,15,11,22.50
2014,09,12,15,12,22.40
2014,09,12,15,13,22.40
2014,09,12,15,14,22.40
2014,09,12,15,15,22.40
2014,09,12,15,16,22.40
2014,09,12,15,17,22.40
2014,09,12,15,18,22.40
2014,09,12,15,19,22.50
2014,09,12,15,20,22.50
2014,09,12,15,21,22.50
2014,09,12,15,22,22.50
2014,09,12,15,23,22.40
2014,09,12,15,24,22.40
2014,09,12,15,25,22.40
2014,09,12,15,26,22.50
2014,09,12,15,27,22.60
2014,09,12,15,28,22.70
2014,09,12,15,29,22.70
2014,09,12,15,30,22.80
2014,09,12,15,31,22.90
2014,09,12,15,32,22.90
2014,09,12,15,33,23.00
2014,09,12,15,34,22.90
2014,09,12,15,35,22.90
2014,09,12,15,36,22.90
2014,09,12,15,37,22.90
2014,09,12,15,38,23.00
2014,09,12,15,39,23.10
2014,09,12,15,40,23.00
2014,09,12,15,41,22.90
2014,09,12,15,42,22.90
2014,09,12,15,43,22.90
2014,09,12,15,44,22.90
2014,09,12,15,45,22.90
2014,09,12,15,46,22.90
2014,09,12,15,47,22.90
2014,09,12,15,48,22.90
2014,09,12,15,49,22.90
2014,09,12,15,50,22.90
2014,09,12,15,51,22.90
2014,09,12,15,52,22.90
2014,09,12,15,53,22.90
2014,09,12,15,54,22.90
2014,09,12,15,55,22.80
2014,09,12,15,56,22.60
2014,09,12,15,57,22.60
2014,09,12,15,58,22.60
2014,09,12,15,59,22.60
2014,09,12,16,00,22.50
2014,09,12,16,01,22.40
2014,09,12,16,02,22.40
2014,09,12,16,03,22.40
2014,09,12,16,04,22.40
2014,09,12,16,05,22.40
2014,09,12,16,06,22.50
2014,09,12,16,07,22.60
2014,09,12,16,08,22.70
2014,09,12,16,09,22.70
2014,09,12,16,10,22.70
2014,09,12,16,11,22.80
2014,09,12,16,12,22.90
2014,09,12,16,13,23.00
2014,09,12,16,14,23.10
2014,09,12,16,15,23.20
2014,09,12,16,16,23.20
2014,09,12,16,17,23.00
2014,09,12,16,18,22.90
2014,09,12,16,19,22.90
2014,09,12,16,20,22.90
2014,09,12,16,21,22.80
2014,09,12,16,22,22.70
2014,09,12,16,23,22.70
2014,09,12,16,24,22.60
2014,09,12,16,25,22.60
2014,09,12,16,26,22.60
2014,09,12,16,27,22.60
2014,09,12,16,28,22.60
2014,09,12,16,29,22.60
2014,09,12,16,30,22.60
2014,09,12,16,31,22.70
2014,09,12,16,32,22.80
2014,09,12,16,33,22.90
2014,09,12,16,34,22.90
2014,09,12,16,35,22.80
2014,09,12,16,36,22.90
2014,09,12,16,37,22.80
2014,09,12,16,38,22.70
2014,09,12,16,39,22.70
2014,09,12,16,40,22.70
2014,09,12,16,41,22.70
2014,09,12,16,42,22.70
2014,09,12,16,43,22.70
2014,09,12,16,44,22.80
2014,09,12,16,45,22.90
2014,09,12,16,46,22.90
2014,09,12,16,47,22.90
2014,09,12,16,48,23.10
2014,09,12,16,49,23.10
2014,09,12,16,50,23.10
2014,09,12,16,51,23.20
2014,09,12,16,52,23.20
2014,09,12,16,53,23.30
2014,09,12,16,54,23.30
2014,09,12,16,55,23.30
2014,09,12,16,56,23.30
2014,09,12,16,57,23.40
2014,09,12,16,58,23.40
2014,09,12,16,59,23.50
2014,09,12,17,00,23.60
2014,09,12,17,01,23.60
2014,09,12,17,02,23.60
2014,09,12,17,03,23.60
2014,09,12,17,04,23.60
2014,09,12,17,05,23.60
2014,09,12,17,06,23.60
2014,09,12,17,07,23.60
2014,09,12,17,08,23.60
2014,09,12,17,09,23.60
2014,09,12,17,10,23.50
2014,09,12,17,11,23.40
2014,09,12,17,12,23.30
2014,09,12,17,13,23.30
2014,09,12,17,14,23.30
2014,09,12,17,15,23.30
2014,09,12,17,16,23.40
2014,09,12,17,17,23.40
2014,09,12,17,18,23.40
2014,09,12,17,19,23.50
2014,09,12,17,20,23.60
2014,09,12,17,21,23.60
2014,09,12,17,22,23.70
2014,09,12,17,23,23.70
2014,09,12,17,24,23.70
2014,09,12,17,25,23.70
2014,09,12,17,26,23.70
2014,09,12,17,27,23.70
2014,09,12,17,28,23.70
2014,09,12,17,29,23.70
2014,09,12,17,30,23.70
2014,09,12,17,31,23.60
2014,09,12,17,32,23.50
2014,09,12,17,33,23.40
2014,09,12,17,34,23.30
2014,09,12,17,35,23.30
2014,09,12,17,36,23.30